This is the latest recevied weather packets stored in our database for station/object KI4HRG. If no packets are shown the sender has not sent any weather packets the latest 10 day(s).
| Time | Temp. | Humidity | Pressure | Rain* | Wind** | Luminosity | Snow |
|---|---|---|---|---|---|---|---|
| 1788565754 | 33.89° C | 56% | 1013.9 hPa | 0 mm | - | 12 W/m² | - |
| 1788565448 | 33.89° C | 56% | 1014.1 hPa | 0 mm | - | 15 W/m² | - |
| 1788565144 | 33.89° C | 56% | 1014 hPa | 0 mm | - | 18 W/m² | - |
| 1788564839 | 33.89° C | 55% | 1014 hPa | 0 mm | - | 21 W/m² | - |
| 1788564536 | 34.44° C | 54% | 1013.8 hPa | 0 mm | - | 24 W/m² | - |
| 1788564232 | 34.44° C | 54% | 1013.7 hPa | 0 mm | - | 25 W/m² | - |
| 1788563928 | 34.44° C | 54% | 1013.5 hPa | 0 mm | - | 27 W/m² | - |
| 1788563623 | 34.44° C | 54% | 1013.8 hPa | 0 mm | - | 30 W/m² | - |
| 1788563318 | 34.44° C | 54% | 1013.5 hPa | 0 mm | - | 32 W/m² | - |
| 1788563017 | 34.44° C | 54% | 1013.5 hPa | 0 mm | - | 33 W/m² | - |
| 1788562712 | 34.44° C | 54% | 1013.5 hPa | 0 mm | - | 35 W/m² | - |
| 1788562410 | 34.44° C | 54% | 1013.3 hPa | 0 mm | - | 38 W/m² | - |
| 1788562123 | 35° C | 54% | 1013.5 hPa | 0 mm | - | 39 W/m² | - |
| 1788561800 | 35° C | 53% | 1013.3 hPa | 0 mm | - | 42 W/m² | - |
| 1788561498 | 35° C | 53% | 1013.5 hPa | 0 mm | - | 46 W/m² | - |
| 1788561193 | 35° C | 53% | 1013.4 hPa | 0 mm | - | 46 W/m² | - |
| 1788560890 | 35° C | 53% | 1013.3 hPa | 0 mm | - | 48 W/m² | - |
| 1788560585 | 35° C | 53% | 1013.3 hPa | 0 mm | - | 51 W/m² | - |
| 1788560285 | 35° C | 53% | 1013.2 hPa | 0 mm | - | 52 W/m² | - |
| 1788559985 | 35° C | 52% | 1013.2 hPa | 0 mm | - | 53 W/m² | - |
| 1788559680 | 35° C | 51% | 1013.2 hPa | 0 mm | - | 54 W/m² | - |
| 1788559379 | 35° C | 52% | 1013.1 hPa | 0 mm | - | 53 W/m² | - |
| 1788559075 | 35° C | 52% | 1013.2 hPa | 0 mm | - | 53 W/m² | - |
| 1788558770 | 35.56° C | 52% | 1013 hPa | 0 mm | - | 74 W/m² | - |
| 1788558465 | 35° C | 53% | 1013.1 hPa | 0 mm | - | 58 W/m² | - |
* Rain latest hour (hover to see other rain measurements)
** Current wind speed in m/s (hover to see current wind gust speed)